STARLINK-1830 (46727 NORAD) Tracking and Keplerian Element Data

This shows tracking and keplerian element data for the satellite.

Feedback or suggestion? Click here.




ElementValue
Catalog46727
NameSTARLINK-1830
Epoch Orbit181
Epoch Day336.91667824
Epoch Year2020
RAAN250.9611
Inclination53.0554
Eccentricity0.0001304
Argument of Perigee52.2584
Mean Anonmoly45.0998
Mean Motion15.62779062
Decay Rate-0.00079181
L11 46727U 20073BK 20336.91667824 -.00079181 00000-0 -86649-3 0 9999
L22 46727 53.0554 250.9611 0001304 52.2584 45.0998 15.62779062 1818

Live tracking and technical data element details for STARLINK-1830 (NORAD 46727). STARLINK-1830 can be tracked NOW for your location showing map with azimuth and elevation plus other details from your city location.

Track the satellite on the map from your city or location and see movement details for azimuth, elevation, latitude, longitude, range, height, and movement on the map or in text.







IsCatalogInMostPopularTable: catalog: 46727, numindb: 10
Update: records affected: 1



GetName: 46727 STARLINK-1830

Hit Count: updated at: Thu, 03 Dec 2020 08:11:13 GMT